sat.trackr.live / text

‹ back to catalog

STARLINK-4644

NORAD 53719 · 2022-107V

PAYLOAD ACTIVE UNKNOWN

§ Identity

Operator
Country
US
Launch date
2022-09-05
Launch site
AFETR
Launch vehicle
Mass (kg)
RCS (m²)

Purposes: comms

External: N2YO · Heavens-Above · Gunter

§ Orbital elements

Epoch: 2026-05-25T05:24:12.504672Z

Period
95.44 min
Inclination
53.2146°
Eccentricity
0.0001412
Mean motion
15.08840315 rev/d
Perigee alt
538.8 km
Apogee alt
540.7 km
Semi-major
6,917.9 km
B*
-5.6736e-5
RAAN
240.1631°
Arg perigee
93.5917°
Mean anomaly
266.5237°
Rev number
20,639

§ Raw data

STARLINK-46441 53719U 22107V   26145.22514473 -.00001191  00000+0 -56736-4 0  99972 53719  53.2146 240.1631 0001412  93.5917 266.5237 15.08840315206393

JSON: /api/v1/satellites/53719 · /tle

For live sub-satellite position, see the globe view (requires WebGL).

§ Visibility from observer

Set your observer location to see the next 7 days of passes ≥ 10°. The values pass through the URL so the page stays shareable.

No JS? Fill the form by hand. The geolocation button needs JavaScript.